ARG221C SCNT-SAWH

Flight info

Callsign ARG221C
Flight time 0h 54m
Altitude 33000
Route NEDAX UQ803 PAMIP DCT DABLI
Aircraft B38M/M-SDE1FGHILORVWXY/HB1

Departure

Time 2026-04-20 19:55
Airport Lieutenant Julio Gallardo Airport (SCNT)

Arrival

Time 2026-04-20 20:49
Airport Ushuaia - Malvinas Argentinas International Airport (SAWH)
Time Latitude Longitude Altitude Speed Heading
2026-04-20 19:41 -51.66870 -72.52887 224 ft 0 kts 145°
2026-04-20 19:52 -51.66875 -72.52882 228 ft 2 kts 148°
2026-04-20 19:52 -51.66877 -72.52882 224 ft 0 kts 169°
2026-04-20 19:52 -51.66878 -72.52883 224 ft 0 kts 191°
2026-04-20 19:52 -51.66881 -72.52894 224 ft 4 kts 241°
2026-04-20 19:53 -51.66931 -72.52978 224 ft 17 kts 209°
2026-04-20 19:53 -51.67033 -72.52974 225 ft 17 kts 124°
2026-04-20 19:53 -51.67106 -72.52769 228 ft 26 kts 120°
2026-04-20 19:53 -51.67213 -72.52469 228 ft 34 kts 121°
2026-04-20 19:54 -51.67334 -72.52126 226 ft 37 kts 119°
2026-04-20 19:54 -51.67423 -72.51810 229 ft 20 kts 108°
2026-04-20 19:54 -51.67453 -72.51786 230 ft 0 kts 263°
2026-04-20 19:54 -51.67451 -72.51790 230 ft 0 kts 297°
2026-04-20 19:55 -51.67437 -72.51834 227 ft 28 kts 297°
2026-04-20 19:55 -51.67202 -72.52496 227 ft 104 kts 299°
2026-04-20 19:55 -51.66729 -72.53807 269 ft 159 kts 301°
2026-04-20 19:55 -51.66159 -72.55366 1037 ft 160 kts 298°
2026-04-20 19:56 -51.66010 -72.57081 2068 ft 165 kts 262°
2026-04-20 19:56 -51.66769 -72.58648 2654 ft 203 kts 216°
2026-04-20 19:56 -51.68295 -72.58950 3250 ft 244 kts 174°
2026-04-20 19:56 -51.69871 -72.57619 3961 ft 261 kts 139°
2026-04-20 19:57 -51.71211 -72.55630 4953 ft 264 kts 142°
2026-04-20 19:57 -51.72704 -72.53859 5723 ft 274 kts 149°
2026-04-20 19:57 -51.74310 -72.52102 6542 ft 280 kts 150°
2026-04-20 19:57 -51.75928 -72.50317 7454 ft 282 kts 150°
2026-04-20 19:58 -51.77533 -72.48541 8356 ft 284 kts 150°
2026-04-20 19:58 -51.79173 -72.46721 9286 ft 286 kts 151°
2026-04-20 19:58 -51.80829 -72.44880 10140 ft 289 kts 151°
2026-04-20 19:58 -51.82484 -72.43037 10948 ft 291 kts 151°
2026-04-20 19:59 -51.84137 -72.41196 11756 ft 293 kts 151°
2026-04-20 19:59 -51.85827 -72.39311 12575 ft 295 kts 151°
2026-04-20 19:59 -51.87528 -72.37374 13357 ft 303 kts 146°
2026-04-20 19:59 -51.89092 -72.34921 13762 ft 325 kts 136°
2026-04-20 20:00 -51.90688 -72.32156 14131 ft 344 kts 136°
2026-04-20 20:00 -51.92363 -72.29286 14557 ft 361 kts 137°
2026-04-20 20:00 -51.94134 -72.26273 15060 ft 374 kts 137°
2026-04-20 20:00 -51.95963 -72.23169 15636 ft 384 kts 137°
2026-04-20 20:01 -51.97821 -72.20020 16316 ft 390 kts 137°
2026-04-20 20:01 -51.99718 -72.16802 17070 ft 394 kts 137°
2026-04-20 20:01 -52.01601 -72.13610 17804 ft 398 kts 137°
2026-04-20 20:01 -52.03535 -72.10329 18440 ft 401 kts 137°
2026-04-20 20:02 -52.05514 -72.07079 19057 ft 405 kts 138°
2026-04-20 20:02 -52.07477 -72.03854 19651 ft 408 kts 138°
2026-04-20 20:02 -52.09484 -72.00543 20281 ft 411 kts 138°
2026-04-20 20:02 -52.11504 -71.97205 20877 ft 415 kts 138°
2026-04-20 20:03 -52.13544 -71.93828 21476 ft 418 kts 138°
2026-04-20 20:03 -52.15566 -71.90476 22053 ft 421 kts 138°
2026-04-20 20:03 -52.17629 -71.87052 22629 ft 424 kts 138°
2026-04-20 20:03 -52.19707 -71.83599 23187 ft 428 kts 138°
2026-04-20 20:04 -52.21808 -71.80101 23670 ft 431 kts 138°
2026-04-20 20:04 -52.23886 -71.76637 24156 ft 433 kts 138°
2026-04-20 20:04 -52.26005 -71.73100 24626 ft 436 kts 138°
2026-04-20 20:04 -52.28135 -71.69539 25086 ft 438 kts 138°
2026-04-20 20:05 -52.30274 -71.65958 25549 ft 441 kts 138°
2026-04-20 20:05 -52.32398 -71.62396 25994 ft 443 kts 138°
2026-04-20 20:05 -52.34568 -71.58753 26421 ft 446 kts 138°
2026-04-20 20:05 -52.36723 -71.55128 26848 ft 448 kts 138°
2026-04-20 20:06 -52.38912 -71.51442 27273 ft 451 kts 139°
2026-04-20 20:06 -52.41115 -71.47726 27684 ft 454 kts 139°
2026-04-20 20:06 -52.43302 -71.44030 28075 ft 456 kts 139°
2026-04-20 20:06 -52.45528 -71.40264 28487 ft 459 kts 139°
2026-04-20 20:07 -52.47725 -71.36540 28884 ft 461 kts 139°
2026-04-20 20:07 -52.49969 -71.32732 29274 ft 464 kts 139°
2026-04-20 20:07 -52.52216 -71.28913 29655 ft 466 kts 139°
2026-04-20 20:07 -52.54484 -71.25049 29971 ft 469 kts 139°
2026-04-20 20:08 -52.56753 -71.21180 30275 ft 471 kts 139°
2026-04-20 20:08 -52.59011 -71.17322 30575 ft 474 kts 139°
2026-04-20 20:08 -52.61306 -71.13396 30869 ft 476 kts 139°
2026-04-20 20:08 -52.63617 -71.09437 31160 ft 478 kts 138°
2026-04-20 20:09 -52.65937 -71.05454 31512 ft 479 kts 138°
2026-04-20 20:09 -52.68223 -71.01525 31888 ft 479 kts 138°
2026-04-20 20:09 -52.70527 -70.97557 32283 ft 479 kts 138°
2026-04-20 20:09 -52.72840 -70.93569 32612 ft 479 kts 138°
2026-04-20 20:10 -52.75130 -70.89611 32697 ft 480 kts 138°
2026-04-20 20:10 -52.79717 -70.81669 32669 ft 477 kts 138°
2026-04-20 20:11 -52.84289 -70.73726 32669 ft 477 kts 138°
2026-04-20 20:11 -52.88871 -70.65738 32664 ft 477 kts 138°
2026-04-20 20:12 -52.93438 -70.57751 32669 ft 482 kts 138°
2026-04-20 20:12 -52.98089 -70.49590 32674 ft 495 kts 138°
2026-04-20 20:13 -53.02868 -70.41176 32668 ft 507 kts 137°
2026-04-20 20:13 -53.05314 -70.36858 32670 ft 513 kts 137°
2026-04-20 20:13 -53.10225 -70.28164 32673 ft 518 kts 137°
2026-04-20 20:14 -53.15139 -70.19435 32678 ft 518 kts 137°
2026-04-20 20:14 -53.20060 -70.10662 32672 ft 518 kts 137°
2026-04-20 20:15 -53.24982 -70.01856 32673 ft 518 kts 137°
2026-04-20 20:15 -53.29905 -69.93018 32671 ft 519 kts 137°
2026-04-20 20:16 -53.34821 -69.84158 32667 ft 519 kts 137°
2026-04-20 20:16 -53.39729 -69.75279 32671 ft 519 kts 137°
2026-04-20 20:17 -53.44616 -69.66409 32673 ft 520 kts 137°
2026-04-20 20:17 -53.49525 -69.57463 32674 ft 519 kts 137°
2026-04-20 20:18 -53.51906 -69.53110 32675 ft 503 kts 137°
2026-04-20 20:18 -53.54279 -69.48769 32683 ft 503 kts 137°
2026-04-20 20:18 -53.58990 -69.40123 32672 ft 502 kts 137°
2026-04-20 20:19 -53.63714 -69.31422 32671 ft 501 kts 137°
2026-04-20 20:19 -53.66034 -69.27138 32450 ft 494 kts 137°
2026-04-20 20:19 -53.68354 -69.22847 31622 ft 496 kts 137°
2026-04-20 20:20 -53.70694 -69.18510 30815 ft 499 kts 137°
2026-04-20 20:20 -53.72995 -69.14238 30326 ft 497 kts 137°
2026-04-20 20:20 -53.75333 -69.09891 29887 ft 500 kts 137°
2026-04-20 20:20 -53.77674 -69.05529 29334 ft 500 kts 137°
2026-04-20 20:21 -53.80010 -69.01168 28798 ft 501 kts 137°
2026-04-20 20:21 -53.82352 -68.96789 28296 ft 502 kts 137°
2026-04-20 20:21 -53.84710 -68.92373 27801 ft 503 kts 137°
2026-04-20 20:21 -53.87036 -68.88007 27296 ft 506 kts 136°
2026-04-20 20:22 -53.88609 -68.85051 26943 ft 509 kts 136°
2026-04-20 20:22 -53.91781 -68.79079 26267 ft 512 kts 136°
2026-04-20 20:22 -53.94183 -68.74547 25745 ft 517 kts 136°
2026-04-20 20:22 -53.96597 -68.69984 25231 ft 517 kts 136°
2026-04-20 20:23 -53.98966 -68.65496 24729 ft 513 kts 136°
2026-04-20 20:23 -54.01350 -68.60972 24216 ft 510 kts 136°
2026-04-20 20:23 -54.03720 -68.56467 23710 ft 506 kts 135°
2026-04-20 20:23 -54.06028 -68.52071 23198 ft 503 kts 135°
2026-04-20 20:24 -54.08356 -68.47630 22610 ft 499 kts 135°
2026-04-20 20:24 -54.10668 -68.43211 22089 ft 495 kts 135°
2026-04-20 20:24 -54.12929 -68.38883 21612 ft 492 kts 135°
2026-04-20 20:24 -54.15208 -68.34511 21131 ft 488 kts 135°
2026-04-20 20:25 -54.17433 -68.30234 20643 ft 484 kts 135°
2026-04-20 20:25 -54.19670 -68.25930 20152 ft 480 kts 135°
2026-04-20 20:25 -54.21886 -68.21655 19667 ft 476 kts 135°
2026-04-20 20:25 -54.24053 -68.17469 19192 ft 473 kts 135°
2026-04-20 20:26 -54.26226 -68.13266 18711 ft 469 kts 135°
2026-04-20 20:26 -54.28361 -68.09124 18249 ft 465 kts 135°
2026-04-20 20:26 -54.30506 -68.05009 17655 ft 460 kts 138°
2026-04-20 20:26 -54.32980 -68.01667 16971 ft 444 kts 156°
2026-04-20 20:27 -54.35757 -67.99442 16273 ft 438 kts 160°
2026-04-20 20:27 -54.38463 -67.97128 15657 ft 436 kts 158°
2026-04-20 20:27 -54.41144 -67.94700 15046 ft 433 kts 157°
2026-04-20 20:27 -54.43796 -67.92238 14438 ft 430 kts 157°
2026-04-20 20:28 -54.45508 -67.90629 14067 ft 428 kts 156°
2026-04-20 20:28 -54.48954 -67.87356 13425 ft 416 kts 156°
2026-04-20 20:28 -54.51466 -67.84957 12603 ft 406 kts 156°
2026-04-20 20:28 -54.53891 -67.82636 11900 ft 394 kts 156°
2026-04-20 20:29 -54.56197 -67.80423 12029 ft 361 kts 157°
2026-04-20 20:29 -54.58287 -67.78417 11986 ft 338 kts 157°
2026-04-20 20:29 -54.60321 -67.76465 11606 ft 326 kts 157°
2026-04-20 20:29 -54.62249 -67.74610 11642 ft 311 kts 158°
2026-04-20 20:30 -54.63498 -67.73408 11653 ft 310 kts 158°
2026-04-20 20:30 -54.65993 -67.71003 11624 ft 308 kts 158°
2026-04-20 20:30 -54.67873 -67.69187 11647 ft 309 kts 158°
2026-04-20 20:30 -54.69091 -67.67886 11610 ft 313 kts 147°
2026-04-20 20:31 -54.70519 -67.65011 11625 ft 322 kts 121°
2026-04-20 20:31 -54.71204 -67.61301 11584 ft 325 kts 95°
2026-04-20 20:31 -54.70996 -67.57484 11649 ft 321 kts 69°
2026-04-20 20:31 -54.70005 -67.54066 11642 ft 313 kts 49°
2026-04-20 20:32 -54.68621 -67.51207 11636 ft 311 kts 41°
2026-04-20 20:32 -54.67166 -67.48481 11625 ft 311 kts 41°
2026-04-20 20:32 -54.65682 -67.45727 11631 ft 311 kts 41°
2026-04-20 20:32 -54.64212 -67.43005 11578 ft 311 kts 41°
2026-04-20 20:33 -54.62736 -67.40270 11295 ft 308 kts 41°
2026-04-20 20:33 -54.61102 -67.37990 11018 ft 293 kts 20°
2026-04-20 20:33 -54.59263 -67.36710 10765 ft 284 kts 11°
2026-04-20 20:33 -54.57414 -67.35618 10651 ft 274 kts 11°
2026-04-20 20:34 -54.55658 -67.34572 10650 ft 266 kts 11°
2026-04-20 20:34 -54.53900 -67.33519 10645 ft 265 kts 11°
2026-04-20 20:34 -54.52172 -67.32494 10645 ft 264 kts
2026-04-20 20:34 -54.50429 -67.32200 10620 ft 244 kts 341°
2026-04-20 20:35 -54.48948 -67.33347 10630 ft 227 kts 312°
2026-04-20 20:35 -54.48109 -67.35516 10631 ft 218 kts 284°
2026-04-20 20:35 -54.48094 -67.38111 10645 ft 221 kts 259°
2026-04-20 20:35 -54.48621 -67.40592 10662 ft 226 kts 246°
2026-04-20 20:36 -54.49624 -67.42749 10642 ft 235 kts 225°
2026-04-20 20:36 -54.51105 -67.44024 10618 ft 248 kts 205°
2026-04-20 20:36 -54.52751 -67.44992 10636 ft 247 kts 211°
2026-04-20 20:36 -54.54329 -67.46095 10666 ft 247 kts 210°
2026-04-20 20:37 -54.55940 -67.47211 10527 ft 251 kts 210°
2026-04-20 20:37 -54.57568 -67.48335 10368 ft 256 kts 210°
2026-04-20 20:37 -54.59235 -67.49481 10125 ft 257 kts 210°
2026-04-20 20:37 -54.60886 -67.50615 9862 ft 258 kts 210°
2026-04-20 20:38 -54.62558 -67.51760 9689 ft 256 kts 210°
2026-04-20 20:38 -54.64206 -67.52890 9391 ft 257 kts 210°
2026-04-20 20:38 -54.65862 -67.54024 9077 ft 256 kts 210°
2026-04-20 20:38 -54.67508 -67.55152 8783 ft 255 kts 210°
2026-04-20 20:39 -54.69160 -67.56285 8488 ft 253 kts 210°
2026-04-20 20:39 -54.70796 -67.57410 8187 ft 252 kts 209°
2026-04-20 20:39 -54.72418 -67.58526 7943 ft 253 kts 209°
2026-04-20 20:39 -54.74062 -67.59655 7668 ft 254 kts 209°
2026-04-20 20:40 -54.75715 -67.60794 7361 ft 255 kts 209°
2026-04-20 20:40 -54.77346 -67.61917 7083 ft 253 kts 209°
2026-04-20 20:40 -54.78959 -67.63055 6936 ft 243 kts 214°
2026-04-20 20:40 -54.80200 -67.64761 6807 ft 223 kts 234°
2026-04-20 20:41 -54.81191 -67.66744 6643 ft 209 kts 246°
2026-04-20 20:41 -54.81606 -67.69036 6415 ft 196 kts 267°
2026-04-20 20:41 -54.81778 -67.71423 6413 ft 201 kts 266°
2026-04-20 20:41 -54.81986 -67.73825 6404 ft 202 kts 265°
2026-04-20 20:42 -54.82163 -67.76157 6397 ft 185 kts 267°
2026-04-20 20:42 -54.82295 -67.78275 6333 ft 173 kts 268°
2026-04-20 20:42 -54.82400 -67.80306 6210 ft 164 kts 269°
2026-04-20 20:42 -54.82488 -67.82240 5965 ft 157 kts 270°
2026-04-20 20:43 -54.82573 -67.84074 5722 ft 153 kts 269°
2026-04-20 20:43 -54.82654 -67.85957 5447 ft 156 kts 271°
2026-04-20 20:43 -54.82725 -67.87803 5245 ft 153 kts 270°
2026-04-20 20:43 -54.82796 -67.89673 5133 ft 157 kts 271°
2026-04-20 20:44 -54.82870 -67.91555 4844 ft 158 kts 271°
2026-04-20 20:44 -54.82942 -67.93451 4642 ft 162 kts 271°
2026-04-20 20:44 -54.83016 -67.95406 4351 ft 159 kts 271°
2026-04-20 20:44 -54.83089 -67.97315 4105 ft 161 kts 272°
2026-04-20 20:45 -54.83163 -67.99254 3859 ft 162 kts 271°
2026-04-20 20:45 -54.83238 -68.01232 3620 ft 165 kts 271°
2026-04-20 20:45 -54.83315 -68.03219 3355 ft 167 kts 270°
2026-04-20 20:45 -54.83392 -68.05256 3065 ft 169 kts 270°
2026-04-20 20:46 -54.83467 -68.07295 2818 ft 169 kts 270°
2026-04-20 20:46 -54.83546 -68.09297 2561 ft 166 kts 270°
2026-04-20 20:46 -54.83623 -68.11242 2305 ft 154 kts 270°
2026-04-20 20:46 -54.83693 -68.13036 2045 ft 144 kts 271°
2026-04-20 20:47 -54.83756 -68.14748 1838 ft 143 kts 270°
2026-04-20 20:47 -54.83824 -68.16495 1647 ft 145 kts 270°
2026-04-20 20:47 -54.83891 -68.18218 1363 ft 144 kts 269°
2026-04-20 20:47 -54.83959 -68.19969 1113 ft 145 kts 269°
2026-04-20 20:48 -54.84026 -68.21716 882 ft 144 kts 269°
2026-04-20 20:48 -54.84087 -68.23440 673 ft 144 kts 269°
2026-04-20 20:48 -54.84159 -68.25175 444 ft 143 kts 268°
2026-04-20 20:48 -54.84240 -68.26894 216 ft 141 kts 269°
2026-04-20 20:49 -54.84289 -68.28523 82 ft 125 kts 266°
2026-04-20 20:49 -54.84335 -68.29693 89 ft 73 kts 266°
2026-04-20 20:49 -54.84362 -68.30394 88 ft 56 kts 266°
2026-04-20 20:49 -54.84380 -68.30886 92 ft 20 kts 266°
2026-04-20 20:50 -54.84350 -68.30955 93 ft 7 kts 355°
2026-04-20 20:50 -54.84288 -68.30964 94 ft 11 kts 354°
2026-04-20 20:50 -54.84203 -68.30976 93 ft 13 kts 356°
2026-04-20 20:50 -54.84108 -68.31007 92 ft 15 kts 317°
2026-04-20 20:51 -54.84096 -68.31185 95 ft 16 kts 266°
2026-04-20 20:51 -54.84085 -68.31283 93 ft 6 kts 333°
2026-04-20 20:51 -54.84045 -68.31291 92 ft 5 kts 358°
2026-04-20 20:51 -54.84037 -68.31292 94 ft 2 kts 358°
2026-04-20 20:52 -54.84029 -68.31287 93 ft 0 kts 41°
2026-04-20 20:52 -54.84028 -68.31282 94 ft 1 kts 60°
2026-04-20 20:52 -54.84023 -68.31270 94 ft 1 kts 49°
2026-04-20 20:52 -54.84016 -68.31260 94 ft 0 kts 29°
2026-04-20 20:53 -54.84015 -68.31259 92 ft 0 kts 29°